Worcester, MA

2:56 AM EDT on August 23, 2017 (GMT -0400)
Worcester Regional

Weather History for KORH - September, 2013

Change the Weather History Date:

Wednesday, September 4, 2013

  Actual Average Record
Temperature  
Mean Temperature 66 °F 65 °F  
Max Temperature 75 °F 74 °F 90 °F (1953)
Min Temperature 56 °F 57 °F 39 °F (1945)
Degree Days  
Heating Degree Days 0 2  
Month to date heating degree days 0 8  
Since 1 July heating degree days 19 47  
Cooling Degree Days 1 3  
Month to date cooling degree days 17 12  
Year to date cooling degree days 548 438  
Growing Degree Days 15 (Base 50)    
Moisture  
Dew Point 54 °F    
Average Humidity 73    
Maximum Humidity 100    
Minimum Humidity 46    
Precipitation  
Precipitation 0.00 in 0.12 in 2.10 in (1988)
Month to date precipitation 1.76 0.46  
Year to date precipitation 34.78 31.82  
Sea Level Pressure  
Sea Level Pressure 29.91 in    
Wind  
Wind Speed 11 mph (West)    
Max Wind Speed 18 mph    
Max Gust Speed 24 mph    
Visibility 10 miles    
Events      
T = Trace of Precipitation, MM = Missing Value Source: NWS Daily Summary

Daily Weather History Graph

Daily Weather History Graph

Search for Another Location

Airport or City:

Trip Planner

Search our weather history database for the weather conditions in past years. The results will help you decide how hot, cold, wet, or windy it might be!

Date:

Astronomy

Sep. 04, 2013 Rise Set
Actual Time 6:16 AM EDT 7:15 PM EDT
Civil Twilight 5:47 AM EDT 7:44 PM EDT
Nautical Twilight 5:13 AM EDT 8:18 PM EDT
Astronomical Twilight 4:37 AM EDT 8:54 PM EDT
Moon 5:25 AM EDT (9/4) 6:33 PM EDT (9/4)
Length of Visible Light 13h 57m
Length of Day
12h 59m
Waning Crescent, 1% of the Moon is Illuminated
Sep 4
Waning Crescent
Sep 5
New
Sep 12
First Quarter
Sep 19
Full
Sep 26
Last Quarter

Hourly Weather History & Observations

Time (EDT) Temp. Dew Point Humidity Pressure Visibility Wind Dir Wind Speed Gust Speed Precip Events Conditions
12:54 AM 59.0 °F 54.0 °F 83% 29.83 in 10.0 mi West 15.0 mph - N/A   Clear
1:54 AM 59.0 °F 54.0 °F 83% 29.84 in 10.0 mi WNW 9.2 mph - N/A   Clear
2:54 AM 57.9 °F 54.0 °F 87% 29.85 in 10.0 mi West 8.1 mph - N/A   Clear
3:54 AM 57.0 °F 54.0 °F 89% 29.86 in 10.0 mi West 8.1 mph - N/A   Clear
4:54 AM 55.9 °F 55.0 °F 97% 29.88 in 10.0 mi West 8.1 mph - N/A   Clear
5:54 AM 55.9 °F 54.0 °F 93% 29.89 in 10.0 mi West 9.2 mph - N/A   Clear
6:54 AM 57.0 °F 55.0 °F 93% 29.91 in 10.0 mi West 9.2 mph - N/A   Clear
7:54 AM 60.1 °F 55.9 °F 86% 29.92 in 10.0 mi West 12.7 mph - N/A   Clear
8:54 AM 64.0 °F 57.0 °F 78% 29.93 in 10.0 mi West 9.2 mph - N/A   Clear
9:54 AM 66.0 °F 55.0 °F 68% 29.94 in 10.0 mi West 11.5 mph - N/A   Clear
10:54 AM 69.1 °F 54.0 °F 58% 29.94 in 10.0 mi West 12.7 mph 21.9 mph N/A   Clear
11:54 AM 70.0 °F 54.0 °F 57% 29.93 in 10.0 mi West 13.8 mph - N/A   Clear
12:54 PM 72.0 °F 54.0 °F 53% 29.92 in 10.0 mi West 12.7 mph - N/A   Clear
1:54 PM 73.9 °F 53.1 °F 48% 29.91 in 10.0 mi West 15.0 mph - N/A   Clear
2:54 PM 73.9 °F 54.0 °F 50% 29.92 in 10.0 mi West 16.1 mph 23.0 mph N/A   Clear
3:54 PM 75.0 °F 53.1 °F 46% 29.92 in 10.0 mi WSW 12.7 mph 18.4 mph N/A   Clear
4:54 PM 73.9 °F 51.1 °F 45% 29.91 in 10.0 mi WSW 17.3 mph - N/A   Clear
5:54 PM 73.0 °F 51.1 °F 46% 29.91 in 10.0 mi West 10.4 mph - N/A   Clear
6:54 PM 69.1 °F 51.1 °F 53% 29.92 in 10.0 mi West 9.2 mph - N/A   Clear
7:54 PM 66.9 °F 52.0 °F 59% 29.93 in 10.0 mi West 8.1 mph - N/A   Clear
8:54 PM 63.0 °F 53.1 °F 70% 29.94 in 10.0 mi WSW 5.8 mph - N/A   Clear
9:54 PM 66.0 °F 55.0 °F 68% 29.94 in 10.0 mi West 11.5 mph - N/A   Clear
10:54 PM 64.0 °F 55.0 °F 73% 29.94 in 10.0 mi West 10.4 mph - N/A   Clear
11:54 PM 60.1 °F 55.0 °F 83% 29.94 in 10.0 mi SW 6.9 mph - N/A   Clear